This is the latest recevied weather packets stored in our database for station/object F4ELU-13. If no packets are shown the sender has not sent any weather packets the latest 10 day(s).
| Time | Temp. | Humidity | Pressure | Rain* | Wind** | Luminosity | Snow |
|---|---|---|---|---|---|---|---|
| 1778166543 | 18.33° C | 56% | 1013 hPa | 0 mm | - | - | - |
| 1778166003 | 18.89° C | 56% | 1013 hPa | 0 mm | - | - | - |
| 1778165643 | 17.78° C | 60% | 1013.1 hPa | 0 mm | - | - | - |
| 1778165103 | 17.78° C | 62% | 1013.2 hPa | 0 mm | - | - | - |
| 1778164563 | 18.89° C | 59% | 1013.2 hPa | 0 mm | - | - | - |
| 1778164023 | 17.78° C | 56% | 1013.3 hPa | 0 mm | - | - | - |
| 1778163483 | 17.78° C | 57% | 1013.4 hPa | 0 mm | - | - | - |
| 1778162943 | 18.33° C | 61% | 1013.4 hPa | 0 mm | - | - | - |
| 1778162403 | 19.44° C | 61% | 1013.5 hPa | 0 mm | - | - | - |
| 1778162043 | 18.89° C | 57% | 1013.5 hPa | 0 mm | - | - | - |
| 1778161503 | 19.44° C | 60% | 1013.6 hPa | 0 mm | - | - | - |
| 1778160963 | 18.33° C | 61% | 1013.6 hPa | 0 mm | - | - | - |
| 1778160423 | 18.33° C | 62% | 1013.7 hPa | 0 mm | - | - | - |
| 1778159883 | 17.78° C | 65% | 1013.7 hPa | 0 mm | - | - | - |
| 1778159343 | 17.22° C | 63% | 1013.8 hPa | 0 mm | - | - | - |
| 1778158805 | 17.22° C | 62% | 1013.8 hPa | 0 mm | - | - | - |
| 1778158803 | 17.22° C | 62% | 1013.8 hPa | 0 mm | - | - | - |
| 1778158499 | 17.22° C | 64% | 1013.8 hPa | 0 mm | - | - | - |
| 1778158443 | 17.22° C | 64% | 1013.8 hPa | 0 mm | - | - | - |
| 1778157974 | 17.78° C | 63% | 1013.8 hPa | 0 mm | - | - | - |
| 1778157903 | 17.78° C | 63% | 1013.8 hPa | 0 mm | - | - | - |
| 1778157363 | 18.33° C | 61% | 1013.8 hPa | 0 mm | - | - | - |
| 1778156823 | 18.89° C | 60% | 1013.8 hPa | 0 mm | - | - | - |
| 1778156283 | 18.33° C | 60% | 1013.8 hPa | 0 mm | - | - | - |
| 1778155743 | 17.78° C | 59% | 1013.9 hPa | 0 mm | - | - | - |
* Rain latest hour (hover to see other rain measurements)
** Current wind speed in m/s (hover to see current wind gust speed)